Time,TemperatureF,DewpointF,PressureIn,WindDirection,WindDirectionDegrees,WindSpeedMPH,WindSpeedGustMPH,Humidity,HourlyPrecipIn,Conditions,Clouds,dailyrainin,SolarRadiationWatts/m^2,SoftwareType,DateUTC
2013-08-10 00:05:00,61.9,58.0,23.68,NE,49,0.0,3.0,87,0.00,,,0.00,1171,Wunderground v.1.15,2013-08-10 05:05:00,
2013-08-10 00:11:00,62.5,59.2,23.69,NE,48,0.0,3.0,89,0.00,,,0.00,1190,Wunderground v.1.15,2013-08-10 05:11:00,
2013-08-10 00:17:00,62.9,59.0,23.70,NE,49,1.0,3.0,87,0.00,,,0.00,1199,Wunderground v.1.15,2013-08-10 05:17:00,
2013-08-10 00:23:00,63.4,59.5,23.70,NE,49,1.0,1.0,87,0.00,,,0.00,1213,Wunderground v.1.15,2013-08-10 05:23:00,
2013-08-10 00:29:00,63.8,59.5,23.71,NE,49,0.0,0.0,86,0.00,,,0.00,1229,Wunderground v.1.15,2013-08-10 05:29:00,
2013-08-10 00:36:00,63.8,59.2,23.71,NE,49,0.0,0.0,85,0.00,,,0.00,1229,Wunderground v.1.15,2013-08-10 05:36:00,
2013-08-10 00:41:00,63.5,58.9,23.72,NE,49,0.0,0.0,85,0.00,,,0.00,1213,Wunderground v.1.15,2013-08-10 05:41:00,
2013-08-10 00:48:00,62.9,58.3,23.72,NE,49,0.0,0.0,85,0.00,,,0.00,1201,Wunderground v.1.15,2013-08-10 05:48:00,
2013-08-10 00:53:00,62.5,57.9,23.73,NE,49,0.0,0.0,85,0.00,,,0.00,1190,Wunderground v.1.15,2013-08-10 05:53:00,
2013-08-10 00:59:00,62.0,57.8,23.73,NE,49,0.0,0.0,86,0.00,,,0.00,1167,Wunderground v.1.15,2013-08-10 05:59:00,
2013-08-10 01:05:00,61.7,58.1,23.74,NE,49,0.0,2.0,88,0.00,,,0.00,1178,Wunderground v.1.15,2013-08-10 06:05:00,
2013-08-10 01:11:00,62.0,58.7,23.74,NE,49,0.0,0.0,89,0.00,,,0.00,1183,Wunderground v.1.15,2013-08-10 06:11:00,
2013-08-10 01:18:00,62.6,59.3,23.75,NE,49,0.0,2.0,89,0.00,,,0.00,1202,Wunderground v.1.15,2013-08-10 06:18:00,
2013-08-10 01:23:00,63.0,59.4,23.75,NE,49,1.0,2.0,88,0.00,,,0.00,1213,Wunderground v.1.15,2013-08-10 06:23:00,
2013-08-10 01:29:00,63.2,59.3,23.75,NE,49,0.0,0.0,87,0.00,,,0.00,1216,Wunderground v.1.15,2013-08-10 06:29:00,
2013-08-10 01:35:00,62.9,58.6,23.76,NE,49,0.0,0.0,86,0.00,,,0.00,1211,Wunderground v.1.15,2013-08-10 06:35:00,
2013-08-10 01:41:00,62.4,58.5,23.76,NE,49,0.0,0.0,87,0.00,,,0.00,1202,Wunderground v.1.15,2013-08-10 06:41:00,
2013-08-10 01:48:00,62.5,58.9,23.77,NE,49,1.0,1.0,88,0.00,,,0.00,1209,Wunderground v.1.15,2013-08-10 06:48:00,
2013-08-10 01:53:00,62.3,58.7,23.77,NE,49,2.0,2.0,88,0.00,,,0.00,1209,Wunderground v.1.15,2013-08-10 06:53:00,
2013-08-10 01:59:00,61.9,58.3,23.78,NE,49,1.0,1.0,88,0.00,,,0.00,1215,Wunderground v.1.15,2013-08-10 06:59:00,
2013-08-10 02:06:00,61.7,58.4,23.78,NE,49,0.0,2.0,89,0.00,,,0.00,1204,Wunderground v.1.15,2013-08-10 07:06:00,
2013-08-10 02:11:00,61.5,58.2,23.79,NE,49,0.0,2.0,89,0.00,,,0.00,1194,Wunderground v.1.15,2013-08-10 07:11:00,
2013-08-10 02:17:00,61.3,58.3,23.79,NE,49,0.0,2.0,90,0.00,,,0.00,1187,Wunderground v.1.15,2013-08-10 07:17:00,
2013-08-10 02:23:00,61.5,58.8,23.80,NE,49,0.0,1.0,91,0.00,,,0.00,1187,Wunderground v.1.15,2013-08-10 07:23:00,
2013-08-10 02:29:00,62.0,59.0,23.80,NE,49,0.0,0.0,90,0.00,,,0.00,1209,Wunderground v.1.15,2013-08-10 07:29:00,
2013-08-10 02:35:00,62.0,58.7,23.81,NE,49,1.0,1.0,89,0.00,,,0.00,1213,Wunderground v.1.15,2013-08-10 07:35:00,
2013-08-10 02:41:00,62.0,58.7,23.81,NE,49,1.0,2.0,89,0.00,,,0.00,1225,Wunderground v.1.15,2013-08-10 07:41:00,
2013-08-10 02:48:00,61.7,58.4,23.81,NE,49,1.0,2.0,89,0.00,,,0.00,1213,Wunderground v.1.15,2013-08-10 07:48:00,
2013-08-10 02:53:00,61.3,58.0,23.82,NE,49,1.0,1.0,89,0.00,,,0.00,1209,Wunderground v.1.15,2013-08-10 07:53:00,
2013-08-10 02:59:00,61.0,58.0,23.82,NE,49,1.0,1.0,90,0.00,,,0.00,1201,Wunderground v.1.15,2013-08-10 07:59:00,
2013-08-10 03:06:00,60.7,57.7,23.83,NE,49,1.0,3.0,90,0.00,,,0.00,1201,Wunderground v.1.15,2013-08-10 08:06:00,
2013-08-10 03:11:00,60.4,57.5,23.83,NE,49,1.0,1.0,90,0.00,,,0.00,1192,Wunderground v.1.15,2013-08-10 08:11:00,
2013-08-10 03:17:00,60.4,58.1,23.83,NE,49,0.0,1.0,92,0.00,,,0.00,1188,Wunderground v.1.15,2013-08-10 08:17:00,
2013-08-10 03:23:00,60.7,58.4,23.84,NE,49,0.0,0.0,92,0.00,,,0.00,1185,Wunderground v.1.15,2013-08-10 08:23:00,
2013-08-10 03:29:00,60.9,58.6,23.84,NE,49,0.0,0.0,92,0.00,,,0.00,1192,Wunderground v.1.15,2013-08-10 08:29:00,
2013-08-10 03:36:00,60.8,58.2,23.85,NE,49,0.0,0.0,91,0.00,,,0.00,1188,Wunderground v.1.15,2013-08-10 08:36:00,
2013-08-10 03:41:00,60.5,57.9,23.85,NE,49,0.0,1.0,91,0.00,,,0.00,1188,Wunderground v.1.15,2013-08-10 08:41:00,
2013-08-10 03:48:00,60.3,58.0,23.85,NE,49,0.0,1.0,92,0.00,,,0.00,1185,Wunderground v.1.15,2013-08-10 08:48:00,
2013-08-10 03:53:00,60.1,57.8,23.85,NE,49,0.0,0.0,92,0.00,,,0.00,1179,Wunderground v.1.15,2013-08-10 08:53:00,
2013-08-10 03:59:00,59.7,57.1,23.86,NE,49,0.0,0.0,91,0.00,,,0.00,1176,Wunderground v.1.15,2013-08-10 08:59:00,
2013-08-10 04:05:00,59.3,57.0,23.86,NE,49,0.0,2.0,92,0.00,,,0.00,1178,Wunderground v.1.15,2013-08-10 09:05:00,
2013-08-10 04:11:00,59.3,57.0,23.87,NE,49,0.0,2.0,92,0.00,,,0.00,1171,Wunderground v.1.15,2013-08-10 09:11:00,
2013-08-10 04:18:00,59.3,57.3,23.87,NE,49,0.0,2.0,93,0.00,,,0.00,1172,Wunderground v.1.15,2013-08-10 09:18:00,
2013-08-10 04:23:00,59.5,57.5,23.87,NE,49,0.0,0.0,93,0.00,,,0.00,1179,Wunderground v.1.15,2013-08-10 09:23:00,
2013-08-10 04:29:00,59.6,57.6,23.88,NE,49,0.0,1.0,93,0.00,,,0.00,1172,Wunderground v.1.15,2013-08-10 09:29:00,
2013-08-10 04:36:00,59.8,57.8,23.88,NE,49,0.0,1.0,93,0.00,,,0.00,1178,Wunderground v.1.15,2013-08-10 09:36:00,
2013-08-10 04:41:00,60.2,58.2,23.89,NE,49,1.0,2.0,93,0.00,,,0.00,1199,Wunderground v.1.15,2013-08-10 09:41:00,
2013-08-10 04:48:00,60.4,57.8,23.89,NE,49,1.0,2.0,91,0.00,,,0.00,1201,Wunderground v.1.15,2013-08-10 09:48:00,
2013-08-10 04:53:00,60.3,57.7,23.89,NE,49,0.0,1.0,91,0.00,,,0.00,1192,Wunderground v.1.15,2013-08-10 09:53:00,
2013-08-10 04:59:00,60.4,57.8,23.90,NE,49,0.0,0.0,91,0.00,,,0.00,1197,Wunderground v.1.15,2013-08-10 09:59:00,
2013-08-10 05:06:00,60.1,57.2,23.90,NE,49,0.0,1.0,90,0.00,,,0.00,1194,Wunderground v.1.15,2013-08-10 10:06:00,
2013-08-10 05:11:00,59.8,56.9,23.90,NE,49,0.0,1.0,90,0.00,,,0.00,1187,Wunderground v.1.15,2013-08-10 10:11:00,
2013-08-10 05:18:00,59.6,57.0,23.91,NE,49,0.0,1.0,91,0.00,,,0.00,1188,Wunderground v.1.15,2013-08-10 10:18:00,
2013-08-10 05:23:00,59.5,56.9,23.91,NE,49,0.0,0.0,91,0.00,,,0.00,1162,Wunderground v.1.15,2013-08-10 10:23:00,
2013-08-10 05:29:00,59.4,56.8,23.91,NE,49,0.0,0.0,91,0.00,,,0.00,1155,Wunderground v.1.15,2013-08-10 10:29:00,
2013-08-10 05:35:00,59.1,56.5,23.92,NE,49,0.0,0.0,91,0.00,,,0.00,1141,Wunderground v.1.15,2013-08-10 10:35:00,
2013-08-10 05:41:00,59.0,56.7,23.92,NE,49,0.0,0.0,92,0.00,,,0.00,1141,Wunderground v.1.15,2013-08-10 10:41:00,
2013-08-10 05:47:00,58.9,56.6,23.92,NE,49,0.0,0.0,92,0.00,,,0.00,1137,Wunderground v.1.15,2013-08-10 10:47:00,
2013-08-10 05:53:00,58.7,56.4,23.92,NE,49,0.0,0.0,92,0.00,,,0.00,1137,Wunderground v.1.15,2013-08-10 10:53:00,
2013-08-10 05:59:00,58.7,56.4,23.93,NE,49,0.0,0.0,92,0.00,,,0.00,1130,Wunderground v.1.15,2013-08-10 10:59:00,
2013-08-10 06:06:00,58.6,56.3,23.93,NE,49,0.0,3.0,92,0.00,,,0.00,1097,Wunderground v.1.15,2013-08-10 11:06:00,
2013-08-10 06:11:00,58.6,56.6,23.93,NE,49,0.0,3.0,93,0.00,,,0.00,1058,Wunderground v.1.15,2013-08-10 11:11:00,
2013-08-10 06:17:00,58.6,56.3,23.94,NE,49,0.0,3.0,92,0.00,,,0.00,1035,Wunderground v.1.15,2013-08-10 11:17:00,
2013-08-10 06:23:00,58.4,56.1,23.94,NE,49,0.0,0.0,92,0.00,,,0.00,1000,Wunderground v.1.15,2013-08-10 11:23:00,
2013-08-10 06:29:00,58.3,56.0,23.95,NE,49,0.0,0.0,92,0.00,,,0.00,981,Wunderground v.1.15,2013-08-10 11:29:00,
2013-08-10 06:36:00,58.1,55.8,23.95,NE,49,0.0,0.0,92,0.00,,,0.00,963,Wunderground v.1.15,2013-08-10 11:36:00,
2013-08-10 06:41:00,58.1,55.8,23.95,NE,49,0.0,0.0,92,0.00,,,0.00,940,Wunderground v.1.15,2013-08-10 11:41:00,
2013-08-10 06:48:00,58.2,56.2,23.95,NE,49,0.0,0.0,93,0.00,,,0.00,939,Wunderground v.1.15,2013-08-10 11:48:00,
2013-08-10 06:53:00,58.4,56.4,25.32,NE,49,0.0,0.0,93,0.00,,,0.00,940,Wunderground v.1.15,2013-08-10 11:53:00,
2013-08-10 06:59:00,58.7,56.7,23.96,NE,49,0.0,0.0,93,0.00,,,0.00,947,Wunderground v.1.15,2013-08-10 11:59:00,
2013-08-10 07:06:00,59.3,57.3,23.96,NE,49,0.0,1.0,93,0.00,,,0.00,956,Wunderground v.1.15,2013-08-10 12:06:00,
2013-08-10 07:11:00,59.8,57.2,23.97,NE,49,1.0,2.0,91,0.00,,,0.00,963,Wunderground v.1.15,2013-08-10 12:11:00,
2013-08-10 07:18:00,59.8,57.2,23.97,NE,49,1.0,2.0,91,0.00,,,0.00,963,Wunderground v.1.15,2013-08-10 12:18:00,
2013-08-10 07:23:00,60.1,57.5,23.97,NE,49,2.0,3.0,91,0.00,,,0.00,970,Wunderground v.1.15,2013-08-10 12:23:00,
2013-08-10 07:29:00,60.5,57.9,23.97,NE,49,2.0,2.0,91,0.00,,,0.00,969,Wunderground v.1.15,2013-08-10 12:29:00,
2013-08-10 07:36:00,61.2,58.2,23.98,NE,49,1.0,2.0,90,0.00,,,0.00,995,Wunderground v.1.15,2013-08-10 12:36:00,
2013-08-10 07:41:00,61.6,58.6,23.98,NE,49,1.0,2.0,90,0.00,,,0.00,1013,Wunderground v.1.15,2013-08-10 12:41:00,
2013-08-10 07:48:00,62.1,59.1,25.34,NE,49,1.0,2.0,90,0.00,,,0.00,1041,Wunderground v.1.15,2013-08-10 12:48:00,
2013-08-10 07:53:00,62.5,59.5,23.98,NE,49,1.0,2.0,90,0.00,,,0.00,1058,Wunderground v.1.15,2013-08-10 12:53:00,
2013-08-10 07:59:00,63.2,59.9,23.98,NE,49,1.0,1.0,89,0.00,,,0.00,1086,Wunderground v.1.15,2013-08-10 12:59:00,
2013-08-10 08:05:00,63.8,59.9,23.99,NE,49,1.0,3.0,87,0.00,,,0.00,1116,Wunderground v.1.15,2013-08-10 13:05:00,
2013-08-10 08:11:00,64.4,60.4,23.99,NE,49,1.0,3.0,87,0.00,,,0.00,1136,Wunderground v.1.15,2013-08-10 13:11:00,
2013-08-10 08:18:00,65.0,60.4,23.99,NE,49,1.0,3.0,85,0.00,,,0.00,1172,Wunderground v.1.15,2013-08-10 13:18:00,
2013-08-10 08:23:00,65.4,60.8,23.99,NE,49,1.0,2.0,85,0.00,,,0.00,1190,Wunderground v.1.15,2013-08-10 13:23:00,
2013-08-10 08:29:00,65.8,61.2,23.99,NE,49,2.0,2.0,85,0.00,,,0.00,1199,Wunderground v.1.15,2013-08-10 13:29:00,
2013-08-10 08:36:00,66.2,61.9,23.99,NE,49,2.0,2.0,86,0.00,,,0.00,1209,Wunderground v.1.15,2013-08-10 13:36:00,
2013-08-10 08:41:00,66.4,62.1,28.07,NE,52,2.0,3.0,86,0.00,,,0.00,1216,Wunderground v.1.15,2013-08-10 13:41:00,
2013-08-10 08:48:00,66.7,62.4,26.71,ENE,63,3.0,4.0,86,0.00,,,0.00,1197,Wunderground v.1.15,2013-08-10 13:48:00,
2013-08-10 08:53:00,66.9,62.2,25.35,ENE,75,3.0,3.0,85,0.00,,,0.00,1185,Wunderground v.1.15,2013-08-10 13:53:00,
2013-08-10 08:59:00,67.5,62.8,23.99,ESE,109,3.0,4.0,85,0.00,,,0.00,1209,Wunderground v.1.15,2013-08-10 13:59:00,
2013-08-10 09:06:00,68.0,63.0,23.99,SE,140,4.0,6.0,84,0.00,,,0.00,1208,Wunderground v.1.15,2013-08-10 14:06:00,
2013-08-10 09:11:00,68.1,62.7,23.99,SE,146,5.0,6.0,83,0.00,,,0.00,1190,Wunderground v.1.15,2013-08-10 14:11:00,
2013-08-10 09:18:00,68.2,62.8,23.99,SE,146,5.0,6.0,83,0.00,,,0.00,1181,Wunderground v.1.15,2013-08-10 14:18:00,
2013-08-10 09:23:00,68.3,62.9,23.99,SE,146,5.0,7.0,83,0.00,,,0.00,1187,Wunderground v.1.15,2013-08-10 14:23:00,
2013-08-10 09:29:00,68.7,63.7,23.98,SE,145,5.0,5.0,84,0.00,,,0.00,1192,Wunderground v.1.15,2013-08-10 14:29:00,
2013-08-10 09:35:00,69.2,64.5,23.98,SE,146,5.0,6.0,85,0.00,,,0.00,1202,Wunderground v.1.15,2013-08-10 14:35:00,
2013-08-10 09:41:00,69.7,64.6,25.34,SSE,163,5.0,6.0,84,0.00,,,0.00,1209,Wunderground v.1.15,2013-08-10 14:41:00,
2013-08-10 09:48:00,70.4,65.3,25.34,SSE,153,5.0,6.0,84,0.00,,,0.00,1238,Wunderground v.1.15,2013-08-10 14:48:00,
2013-08-10 09:53:00,70.8,65.4,23.97,SSE,157,5.0,5.0,83,0.00,,,0.00,1246,Wunderground v.1.15,2013-08-10 14:53:00,
2013-08-10 09:59:00,71.1,65.3,23.97,SSE,153,5.0,8.0,82,0.00,,,0.00,1264,Wunderground v.1.15,2013-08-10 14:59:00,
2013-08-10 10:05:00,71.6,66.2,25.32,SSE,163,5.0,11.0,83,0.00,,,0.00,1260,Wunderground v.1.15,2013-08-10 15:05:00,
2013-08-10 10:11:00,71.9,65.8,23.96,SSE,147,5.0,5.0,81,0.00,,,0.00,1273,Wunderground v.1.15,2013-08-10 15:11:00,
2013-08-10 10:18:00,71.7,65.6,23.95,SSE,150,6.0,6.0,81,0.00,,,0.00,1255,Wunderground v.1.15,2013-08-10 15:18:00,
2013-08-10 10:23:00,71.9,65.8,23.95,SSE,168,5.0,6.0,81,0.00,,,0.00,1238,Wunderground v.1.15,2013-08-10 15:23:00,
2013-08-10 10:29:00,72.3,65.8,23.94,SSE,155,6.0,6.0,80,0.00,,,0.00,1245,Wunderground v.1.15,2013-08-10 15:29:00,
2013-08-10 10:36:00,72.7,66.2,23.94,SSE,151,6.0,9.0,80,0.00,,,0.00,1260,Wunderground v.1.15,2013-08-10 15:36:00,
2013-08-10 10:41:00,73.1,65.8,23.93,SSE,161,6.0,9.0,78,0.00,,,0.00,1260,Wunderground v.1.15,2013-08-10 15:41:00,
2013-08-10 10:47:00,73.2,65.9,23.92,SSE,164,7.0,10.0,78,0.00,,,0.00,1236,Wunderground v.1.15,2013-08-10 15:47:00,
2013-08-10 10:53:00,73.7,66.8,23.92,SSE,159,6.0,7.0,79,0.00,,,0.00,1248,Wunderground v.1.15,2013-08-10 15:53:00,
2013-08-10 10:59:00,74.0,66.7,23.91,SE,138,6.0,7.0,78,0.00,,,0.00,1271,Wunderground v.1.15,2013-08-10 15:59:00,
2013-08-10 11:06:00,74.2,66.5,23.91,SSE,150,7.0,10.0,77,0.00,,,0.00,1308,Wunderground v.1.15,2013-08-10 16:06:00,
2013-08-10 11:11:00,74.5,67.2,23.90,SSE,167,7.0,11.0,78,0.00,,,0.00,1311,Wunderground v.1.15,2013-08-10 16:11:00,
2013-08-10 11:18:00,74.9,67.2,23.90,SSE,156,6.0,11.0,77,0.00,,,0.00,1318,Wunderground v.1.15,2013-08-10 16:18:00,
2013-08-10 11:23:00,75.1,66.6,23.89,South,178,6.0,6.0,75,0.00,,,0.00,1306,Wunderground v.1.15,2013-08-10 16:23:00,
2013-08-10 11:29:00,75.5,67.8,23.88,South,171,6.0,6.0,77,0.00,,,0.00,1299,Wunderground v.1.15,2013-08-10 16:29:00,
2013-08-10 11:36:00,76.0,67.5,23.88,SSE,157,5.0,6.0,75,0.00,,,0.00,1362,Wunderground v.1.15,2013-08-10 16:36:00,
2013-08-10 11:41:00,76.4,67.9,23.87,South,177,5.0,5.0,75,0.00,,,0.00,1364,Wunderground v.1.15,2013-08-10 16:41:00,
2013-08-10 11:48:00,76.7,68.2,23.86,South,190,5.0,9.0,75,0.00,,,0.00,1338,Wunderground v.1.15,2013-08-10 16:48:00,
2013-08-10 11:53:00,76.9,69.1,23.86,South,178,5.0,5.0,77,0.00,,,0.00,1339,Wunderground v.1.15,2013-08-10 16:53:00,
2013-08-10 11:59:00,77.1,68.2,23.85,South,187,5.0,6.0,74,0.00,,,0.00,1325,Wunderground v.1.15,2013-08-10 16:59:00,
2013-08-10 12:05:00,77.1,68.9,23.84,SSE,168,6.0,13.0,76,0.00,,,0.00,1317,Wunderground v.1.15,2013-08-10 17:05:00,
2013-08-10 12:11:00,77.5,68.6,23.84,South,182,5.0,13.0,74,0.00,,,0.00,1366,Wunderground v.1.15,2013-08-10 17:11:00,
2013-08-10 12:17:00,77.8,68.8,23.83,SSE,165,5.0,13.0,74,0.00,,,0.00,1376,Wunderground v.1.15,2013-08-10 17:17:00,
2013-08-10 12:23:00,77.8,68.4,23.82,SSE,160,4.0,5.0,73,0.00,,,0.00,1422,Wunderground v.1.15,2013-08-10 17:23:00,
2013-08-10 12:29:00,78.1,68.7,23.81,SE,133,4.0,7.0,73,0.00,,,0.00,1415,Wunderground v.1.15,2013-08-10 17:29:00,
2013-08-10 12:35:00,78.0,68.6,23.81,SE,144,5.0,7.0,73,0.00,,,0.00,1454,Wunderground v.1.15,2013-08-10 17:35:00,
2013-08-10 12:41:00,77.9,68.5,23.80,SE,139,5.0,7.0,73,0.00,,,0.00,1463,Wunderground v.1.15,2013-08-10 17:41:00,
2013-08-10 12:47:00,77.6,67.9,23.79,SSE,154,4.0,7.0,72,0.00,,,0.00,1420,Wunderground v.1.15,2013-08-10 17:47:00,
2013-08-10 12:53:00,78.0,69.0,23.79,SSE,149,4.0,5.0,74,0.00,,,0.00,1443,Wunderground v.1.15,2013-08-10 17:53:00,
2013-08-10 12:59:00,78.5,68.7,23.78,SSE,164,4.0,5.0,72,0.00,,,0.00,1457,Wunderground v.1.15,2013-08-10 17:59:00,
2013-08-10 13:05:00,78.4,67.8,23.77,SE,145,5.0,13.0,70,0.00,,,0.00,1454,Wunderground v.1.15,2013-08-10 18:05:00,
2013-08-10 13:11:00,77.9,68.5,23.76,SE,133,5.0,6.0,73,0.00,,,0.00,1431,Wunderground v.1.15,2013-08-10 18:11:00,
2013-08-10 13:18:00,78.0,67.4,23.75,ESE,113,5.0,6.0,70,0.00,,,0.00,1434,Wunderground v.1.15,2013-08-10 18:18:00,
2013-08-10 13:23:00,77.8,68.0,23.74,SSE,152,5.0,5.0,72,0.00,,,0.00,1412,Wunderground v.1.15,2013-08-10 18:23:00,
2013-08-10 13:29:00,78.0,68.2,23.73,SE,144,4.0,4.0,72,0.00,,,0.00,1420,Wunderground v.1.15,2013-08-10 18:29:00,
2013-08-10 13:36:00,78.4,68.6,23.73,SE,132,4.0,7.0,72,0.00,,,0.00,1431,Wunderground v.1.15,2013-08-10 18:36:00,
2013-08-10 13:41:00,78.8,68.2,23.72,SSE,168,4.0,5.0,70,0.00,,,0.00,1454,Wunderground v.1.15,2013-08-10 18:41:00,
2013-08-10 13:47:00,79.0,68.0,23.72,SE,132,5.0,6.0,69,0.00,,,0.00,1466,Wunderground v.1.15,2013-08-10 18:47:00,
2013-08-10 13:53:00,79.3,67.8,23.71,SE,138,5.0,7.0,68,0.00,,,0.00,1492,Wunderground v.1.15,2013-08-10 18:53:00,
2013-08-10 13:59:00,79.3,67.0,23.71,SE,135,5.0,5.0,66,0.00,,,0.00,1494,Wunderground v.1.15,2013-08-10 18:59:00,
2013-08-10 14:06:00,79.4,67.0,23.70,South,179,4.0,11.0,66,0.00,,,0.00,,Wunderground v.1.15,2013-08-10 19:06:00,
2013-08-10 14:11:00,79.6,66.8,23.70,SSE,160,4.0,11.0,65,0.00,,,0.00,1489,Wunderground v.1.15,2013-08-10 19:11:00,
2013-08-10 14:18:00,79.6,67.2,23.69,South,169,5.0,11.0,66,0.00,,,0.00,1477,Wunderground v.1.15,2013-08-10 19:18:00,
2013-08-10 14:23:00,79.4,66.6,23.69,SSE,149,4.0,6.0,65,0.00,,,0.00,1466,Wunderground v.1.15,2013-08-10 19:23:00,
2013-08-10 14:29:00,79.2,66.9,23.68,SSE,151,5.0,5.0,66,0.00,,,0.00,1452,Wunderground v.1.15,2013-08-10 19:29:00,
2013-08-10 14:35:00,79.6,67.2,23.68,SE,133,5.0,6.0,66,0.00,,,0.00,1485,Wunderground v.1.15,2013-08-10 19:35:00,
2013-08-10 14:41:00,80.2,67.8,23.67,South,172,5.0,5.0,66,0.00,,,0.00,1499,Wunderground v.1.15,2013-08-10 19:41:00,
2013-08-10 14:47:00,80.3,67.5,23.67,SE,146,5.0,7.0,65,0.00,,,0.00,1489,Wunderground v.1.15,2013-08-10 19:47:00,
2013-08-10 14:53:00,80.0,67.2,23.66,SSW,202,5.0,8.0,65,0.00,,,0.00,1463,Wunderground v.1.15,2013-08-10 19:53:00,
2013-08-10 14:59:00,80.2,66.9,23.66,SE,144,6.0,6.0,64,0.00,,,0.00,1468,Wunderground v.1.15,2013-08-10 19:59:00,
2013-08-10 15:06:00,80.5,67.2,23.65,SE,144,5.0,12.0,64,0.00,,,0.00,1482,Wunderground v.1.15,2013-08-10 20:06:00,
2013-08-10 15:11:00,80.4,66.2,23.64,South,172,7.0,12.0,62,0.00,,,0.00,1475,Wunderground v.1.15,2013-08-10 20:11:00,
2013-08-10 15:18:00,80.6,65.9,23.37,SSW,211,7.0,12.0,61,0.00,,,0.00,1455,Wunderground v.1.15,2013-08-10 20:18:00,
2013-08-10 15:23:00,80.9,66.2,23.37,SSE,159,6.0,13.0,61,0.00,,,0.00,1447,Wunderground v.1.15,2013-08-10 20:23:00,
2013-08-10 15:29:00,80.8,66.1,23.37,SSE,164,7.0,7.0,61,0.00,,,0.00,1454,Wunderground v.1.15,2013-08-10 20:29:00,
2013-08-10 15:35:00,80.6,65.9,23.61,South,171,6.0,7.0,61,0.00,,,0.00,1463,Wunderground v.1.15,2013-08-10 20:35:00,
2013-08-10 15:41:00,80.8,67.0,23.60,SSE,168,6.0,9.0,63,0.00,,,0.00,1455,Wunderground v.1.15,2013-08-10 20:41:00,
2013-08-10 15:48:00,81.0,66.8,23.60,South,180,7.0,10.0,62,0.00,,,0.00,1454,Wunderground v.1.15,2013-08-10 20:48:00,
2013-08-10 15:53:00,81.0,65.3,23.59,South,173,6.0,9.0,59,0.00,,,0.00,1463,Wunderground v.1.15,2013-08-10 20:53:00,
2013-08-10 15:59:00,81.1,66.8,23.58,South,180,6.0,6.0,62,0.00,,,0.00,1470,Wunderground v.1.15,2013-08-10 20:59:00,
2013-08-10 16:06:00,81.2,66.9,23.56,South,169,6.0,12.0,62,0.00,,,0.00,1473,Wunderground v.1.15,2013-08-10 21:06:00,
2013-08-10 16:11:00,81.2,66.0,23.56,SSE,152,6.0,6.0,60,0.00,,,0.00,1471,Wunderground v.1.15,2013-08-10 21:11:00,
2013-08-10 16:17:00,81.2,66.9,23.56,South,178,6.0,6.0,62,0.00,,,0.00,1478,Wunderground v.1.15,2013-08-10 21:17:00,
2013-08-10 16:23:00,81.2,65.0,23.56,South,175,6.0,10.0,58,0.00,,,0.00,1482,Wunderground v.1.15,2013-08-10 21:23:00,
2013-08-10 16:29:00,80.9,66.2,23.56,SSE,160,7.0,7.0,61,0.00,,,0.00,1470,Wunderground v.1.15,2013-08-10 21:29:00,
2013-08-10 16:36:00,81.0,65.3,21.89,SSW,203,6.0,7.0,59,0.00,,,0.00,1478,Wunderground v.1.15,2013-08-10 21:36:00,
2013-08-10 16:41:00,81.4,66.7,23.77,SSE,152,5.0,11.0,61,0.00,,,0.00,1473,Wunderground v.1.15,2013-08-10 21:41:00,
2013-08-10 16:48:00,81.2,66.9,21.88,SSE,167,6.0,11.0,62,0.00,,,0.00,1470,Wunderground v.1.15,2013-08-10 21:48:00,
2013-08-10 16:53:00,81.3,66.6,23.53,SSW,196,6.0,7.0,61,0.00,,,0.00,1468,Wunderground v.1.15,2013-08-10 21:53:00,
2013-08-10 16:59:00,81.3,66.6,16.93,SSW,207,6.0,10.0,61,0.00,,,0.00,1475,Wunderground v.1.15,2013-08-10 21:59:00,
2013-08-10 17:06:00,81.2,66.9,16.93,South,183,6.0,14.0,62,0.00,,,0.00,1455,Wunderground v.1.15,2013-08-10 22:06:00,
2013-08-10 17:11:00,81.3,66.6,23.51,SSW,192,7.0,14.0,61,0.00,,,0.00,1455,Wunderground v.1.15,2013-08-10 22:11:00,
2013-08-10 17:17:00,81.1,67.8,23.51,SE,146,7.0,14.0,64,0.00,,,0.00,1455,Wunderground v.1.15,2013-08-10 22:17:00,
2013-08-10 17:23:00,80.9,67.1,23.51,SSE,168,7.0,12.0,63,0.00,,,0.00,1464,Wunderground v.1.15,2013-08-10 22:23:00,
2013-08-10 17:29:00,80.9,66.2,23.50,South,184,7.0,9.0,61,0.00,,,0.00,1454,Wunderground v.1.15,2013-08-10 22:29:00,
2013-08-10 17:35:00,80.9,66.7,23.50,SE,145,6.0,9.0,62,0.00,,,0.00,1452,Wunderground v.1.15,2013-08-10 22:35:00,
2013-08-10 17:41:00,80.8,66.6,18.61,SSW,202,6.0,6.0,62,0.00,,,0.00,1463,Wunderground v.1.15,2013-08-10 22:41:00,
2013-08-10 17:48:00,80.9,67.6,23.49,SSE,156,5.0,6.0,64,0.00,,,0.00,1475,Wunderground v.1.15,2013-08-10 22:48:00,
2013-08-10 17:53:00,80.9,67.1,23.49,SSE,164,5.0,9.0,63,0.00,,,0.00,1473,Wunderground v.1.15,2013-08-10 22:53:00,
2013-08-10 17:59:00,80.8,67.0,23.49,South,171,6.0,6.0,63,0.00,,,0.00,1473,Wunderground v.1.15,2013-08-10 22:59:00,
2013-08-10 18:06:00,80.8,67.5,23.49,SSE,156,6.0,14.0,64,0.00,,,0.00,1473,Wunderground v.1.15,2013-08-10 23:06:00,
2013-08-10 18:11:00,80.6,66.4,23.48,South,173,5.0,5.0,62,0.00,,,0.00,1473,Wunderground v.1.15,2013-08-10 23:11:00,
2013-08-10 18:18:00,80.6,66.4,23.48,South,169,5.0,6.0,62,0.00,,,0.00,1477,Wunderground v.1.15,2013-08-10 23:18:00,
2013-08-10 18:23:00,80.5,66.7,23.22,South,169,5.0,7.0,63,0.00,,,0.00,1475,Wunderground v.1.15,2013-08-10 23:23:00,
2013-08-10 18:29:00,80.4,66.6,23.22,South,177,5.0,5.0,63,0.00,,,0.00,1477,Wunderground v.1.15,2013-08-10 23:29:00,
2013-08-10 18:36:00,80.4,67.1,23.22,SSE,148,4.0,5.0,64,0.00,,,0.00,1478,Wunderground v.1.15,2013-08-10 23:36:00,
2013-08-10 18:41:00,80.2,66.9,23.22,South,169,4.0,7.0,64,0.00,,,0.00,1477,Wunderground v.1.15,2013-08-10 23:41:00,
2013-08-10 18:48:00,80.0,66.7,23.22,South,184,4.0,7.0,64,0.00,,,0.00,1473,Wunderground v.1.15,2013-08-10 23:48:00,
2013-08-10 18:53:00,79.9,67.5,23.15,SSE,164,4.0,4.0,66,0.00,,,0.00,1471,Wunderground v.1.15,2013-08-10 23:53:00,
2013-08-10 18:59:00,79.7,67.8,23.15,ESE,122,3.0,4.0,67,0.00,,,0.00,1468,Wunderground v.1.15,2013-08-10 23:59:00,
2013-08-10 19:05:00,79.3,67.8,23.20,SE,140,3.0,14.0,68,0.00,,,0.00,1471,Wunderground v.1.15,2013-08-11 00:05:00,
2013-08-10 19:11:00,79.2,68.6,22.94,SE,141,2.0,3.0,70,0.00,,,0.00,1480,Wunderground v.1.15,2013-08-11 00:11:00,
2013-08-10 19:18:00,78.9,67.9,23.02,SE,136,3.0,5.0,69,0.00,,,0.00,1480,Wunderground v.1.15,2013-08-11 00:18:00,
2013-08-10 19:23:00,78.6,68.0,23.02,SE,130,3.0,4.0,70,0.00,,,0.00,1471,Wunderground v.1.15,2013-08-11 00:23:00,
2013-08-10 19:29:00,78.1,67.5,23.29,SE,125,4.0,4.0,70,0.00,,,0.00,1461,Wunderground v.1.15,2013-08-11 00:29:00,
2013-08-10 19:35:00,77.7,67.5,23.47,SE,136,3.0,4.0,71,0.00,,,0.00,1461,Wunderground v.1.15,2013-08-11 00:35:00,
2013-08-10 19:41:00,77.4,67.7,23.38,SE,137,2.0,2.0,72,0.00,,,0.00,1464,Wunderground v.1.15,2013-08-11 00:41:00,
2013-08-10 19:48:00,76.9,67.6,23.29,SE,134,2.0,3.0,73,0.00,,,0.00,1477,Wunderground v.1.15,2013-08-11 00:48:00,
2013-08-10 19:53:00,76.5,68.0,23.46,SE,134,2.0,3.0,75,0.00,,,0.00,1463,Wunderground v.1.15,2013-08-11 00:53:00,
2013-08-10 19:59:00,75.9,67.8,23.46,SE,134,2.0,2.0,76,0.00,,,0.00,1463,Wunderground v.1.15,2013-08-11 00:59:00,
2013-08-10 20:06:00,75.3,68.0,23.46,SE,134,1.0,11.0,78,0.00,,,0.00,1457,Wunderground v.1.15,2013-08-11 01:06:00,
2013-08-10 20:11:00,74.8,67.8,23.47,SE,134,1.0,1.0,79,0.00,,,0.00,1443,Wunderground v.1.15,2013-08-11 01:11:00,
2013-08-10 20:18:00,74.1,67.9,23.47,SE,133,1.0,1.0,81,0.00,,,0.00,1415,Wunderground v.1.15,2013-08-11 01:18:00,
2013-08-10 20:23:00,73.6,67.8,24.69,SE,134,1.0,1.0,82,0.00,,,0.00,1390,Wunderground v.1.15,2013-08-11 01:23:00,
2013-08-10 20:29:00,72.9,67.1,24.69,SE,133,1.0,2.0,82,0.00,,,0.00,1361,Wunderground v.1.15,2013-08-11 01:29:00,
2013-08-10 20:36:00,72.2,66.7,26.28,SE,134,1.0,3.0,83,0.00,,,0.00,1318,Wunderground v.1.15,2013-08-11 01:36:00,
2013-08-10 20:41:00,71.7,66.6,26.28,SE,134,2.0,2.0,84,0.00,,,0.00,1299,Wunderground v.1.15,2013-08-11 01:41:00,
2013-08-10 20:48:00,71.2,66.1,23.48,SE,133,2.0,2.0,84,0.00,,,0.00,1287,Wunderground v.1.15,2013-08-11 01:48:00,
2013-08-10 20:53:00,70.9,66.2,23.48,SE,134,1.0,2.0,85,0.00,,,0.00,1297,Wunderground v.1.15,2013-08-11 01:53:00,
2013-08-10 20:59:00,70.5,65.8,23.48,SE,134,1.0,1.0,85,0.00,,,0.00,1296,Wunderground v.1.15,2013-08-11 01:59:00,
2013-08-10 21:05:00,70.1,65.7,23.40,SE,134,0.0,6.0,86,0.00,,,0.00,1294,Wunderground v.1.15,2013-08-11 02:05:00,
2013-08-10 21:11:00,69.8,65.4,23.40,SE,134,0.0,6.0,86,0.00,,,0.00,1310,Wunderground v.1.15,2013-08-11 02:11:00,
2013-08-10 21:17:00,69.3,65.3,18.45,SE,133,1.0,6.0,87,0.00,,,0.00,1311,Wunderground v.1.15,2013-08-11 02:17:00,
2013-08-10 21:23:00,69.0,65.3,23.23,SE,134,1.0,2.0,88,0.00,,,0.00,1320,Wunderground v.1.15,2013-08-11 02:23:00,
2013-08-10 21:29:00,68.8,65.1,23.05,SE,134,2.0,2.0,88,0.00,,,0.00,1320,Wunderground v.1.15,2013-08-11 02:29:00,
2013-08-10 21:36:00,68.5,65.1,22.97,SE,134,2.0,3.0,89,0.00,,,0.00,1327,Wunderground v.1.15,2013-08-11 02:36:00,
2013-08-10 21:41:00,68.4,65.0,23.06,SE,134,2.0,2.0,89,0.00,,,0.00,1334,Wunderground v.1.15,2013-08-11 02:41:00,
2013-08-10 21:48:00,68.3,64.9,23.06,SE,135,2.0,3.0,89,0.00,,,0.00,1336,Wunderground v.1.15,2013-08-11 02:48:00,
2013-08-10 21:53:00,68.3,64.9,23.06,SE,137,3.0,4.0,89,0.00,,,0.00,1338,Wunderground v.1.15,2013-08-11 02:53:00,
2013-08-10 21:59:00,68.4,65.0,23.51,SE,138,3.0,3.0,89,0.00,,,0.00,1343,Wunderground v.1.15,2013-08-11 02:59:00,
2013-08-10 22:06:00,68.4,64.7,18.43,SE,138,3.0,4.0,88,0.00,,,0.00,1350,Wunderground v.1.15,2013-08-11 03:06:00,
2013-08-10 22:11:00,68.3,64.6,23.34,SE,138,2.0,3.0,88,0.00,,,0.00,1345,Wunderground v.1.15,2013-08-11 03:11:00,
2013-08-10 22:17:00,68.1,64.4,23.35,SE,138,2.0,4.0,88,0.00,,,0.00,1339,Wunderground v.1.15,2013-08-11 03:17:00,
2013-08-10 22:25:00,68.1,64.4,23.09,SE,142,3.0,4.0,88,0.00,,,0.00,1339,Wunderground v.1.15,2013-08-11 03:25:00,
2013-08-10 22:31:00,68.0,64.6,23.09,SSE,156,3.0,3.0,89,0.00,,,0.00,1341,Wunderground v.1.15,2013-08-11 03:31:00,
2013-08-10 22:37:00,68.0,64.3,23.09,SSE,159,3.0,4.0,88,0.00,,,0.00,1343,Wunderground v.1.15,2013-08-11 03:37:00,
2013-08-10 22:43:00,68.0,64.3,23.52,SSE,160,3.0,3.0,88,0.00,,,0.00,1341,Wunderground v.1.15,2013-08-11 03:43:00,
2013-08-10 22:49:00,67.8,64.1,23.19,SSE,163,3.0,5.0,88,0.00,,,0.00,1338,Wunderground v.1.15,2013-08-11 03:49:00,
2013-08-10 22:56:00,67.6,64.2,23.38,SSE,157,3.0,5.0,89,0.00,,,0.00,1339,Wunderground v.1.15,2013-08-11 03:56:00,
2013-08-10 23:01:00,67.5,64.1,23.47,SSE,156,3.0,5.0,89,0.00,,,0.00,1341,Wunderground v.1.15,2013-08-11 04:01:00,
2013-08-10 23:03:00,67.4,64.0,23.47,SSE,156,3.0,5.0,89,0.00,,,0.00,1332,Wunderground v.1.15,2013-08-11 04:03:00,
2013-08-10 23:06:00,67.4,64.0,23.56,SSE,156,3.0,5.0,89,0.00,,,0.00,1329,Wunderground v.1.15,2013-08-11 04:06:00,
2013-08-10 23:11:00,67.2,63.8,23.56,SSE,156,2.0,5.0,89,0.00,,,0.00,1327,Wunderground v.1.15,2013-08-11 04:11:00,
2013-08-10 23:18:00,67.0,64.0,23.57,SSE,154,3.0,5.0,90,0.00,,,0.00,1322,Wunderground v.1.15,2013-08-11 04:18:00,
2013-08-10 23:23:00,67.0,64.0,23.57,SSE,152,4.0,5.0,90,0.00,,,0.00,1334,Wunderground v.1.15,2013-08-11 04:23:00,
2013-08-10 23:29:00,67.0,64.0,23.58,SSE,150,3.0,3.0,90,0.00,,,0.00,1325,Wunderground v.1.15,2013-08-11 04:29:00,
2013-08-10 23:33:00,67.0,64.0,23.58,SSE,148,3.0,3.0,90,0.00,,,0.00,1331,Wunderground v.1.15,2013-08-11 04:33:00,
2013-08-10 23:39:00,66.9,63.9,23.64,SSE,148,3.0,3.0,90,0.00,,,0.00,1317,Wunderground v.1.15,2013-08-11 04:39:00,
2013-08-10 23:45:00,66.9,63.9,23.59,SSE,148,3.0,3.0,90,0.00,,,0.00,1322,Wunderground v.1.15,2013-08-11 04:45:00,
2013-08-10 23:51:00,66.7,63.4,23.59,SSE,148,3.0,3.0,89,0.00,,,0.00,1324,Wunderground v.1.15,2013-08-11 04:51:00,
2013-08-10 23:58:00,66.4,63.1,23.60,SSE,148,2.0,3.0,89,0.00,,,0.00,1310,Wunderground v.1.15,2013-08-11 04:58:00,